{"data":{"norad_id":66248,"epoch":"2026-09-20T22:48:50.782464Z","epoch_age_seconds":57725,"freshness":"FRESH","line1":"1 66248U 25245Q   26263.95058776  .00022383  00000+0  73007-3 0  9997","line2":"2 66248  53.1581  95.3800 0000759  80.2356 279.8731 15.31736003 51115","mean_motion":15.31736003,"eccentricity":7.59e-5,"inclination_deg":53.1581,"raan_deg":95.38,"arg_perigee_deg":80.2356,"mean_anomaly_deg":279.8731,"bstar":0.00073007,"rev_number":5111,"period_min":94.010978209017,"perigee_km":470.11285263999,"apogee_km":471.15249587654,"semimajor_km":6848.7696742583,"source":"CELESTRAK","updated_at":"2026-09-21T09:00:35.848689Z"}}